Precipitable_Water
1.06 1.05 1.01 0.94 0.93 0.99 0.97 0.97 0.97 0.93 0.89 0.87 0.86 0.80 0.74 0.67 0.59 0.55 0.44 0.41 0.39 0.38
0.98 0.99 1.04 1.06 1.05 1.07 1.10 1.09 1.06 1.02 0.97 0.92 0.84 0.81 0.77 0.67 0.52 0.50 0.46 0.39 0.36 0.33
1.03 0.98 0.99 1.08 1.07 1.10 1.11 1.11 1.09 1.03 0.99 0.92 0.82 0.72 0.62 0.50 0.44 0.40 0.37 0.35 0.33 0.33
1.01 1.03 1.00 1.02 1.10 1.11 1.14 1.13 1.08 0.96 0.85 0.75 0.62 0.53 0.45 0.42 0.40 0.38 0.35 0.33 0.32 0.32
1.00 0.97 0.99 1.05 1.13 1.12 1.07 1.02 1.00 0.87 0.70 0.59 0.51 0.45 0.41 0.39 0.37 0.34 0.32 0.31 0.32 0.33
0.93 0.96 1.00 1.05 1.06 1.08 1.02 0.91 0.75 0.62 0.54 0.49 0.46 0.43 0.41 0.38 0.34 0.32 0.33 0.33 0.30 0.29
0.96 0.96 0.96 1.04 1.01 0.95 0.85 0.72 0.58 0.53 0.49 0.46 0.44 0.42 0.38 0.34 0.33 0.32 0.30 0.31 0.31 0.29
0.97 0.97 0.96 0.93 0.88 0.80 0.68 0.56 0.52 0.52 0.51 0.49 0.45 0.40 0.36 0.33 0.29 0.30 0.31 0.30 0.29 0.30
0.98 0.93 0.89 0.80 0.69 0.61 0.56 0.54 0.53 0.49 0.46 0.42 0.39 0.38 0.33 0.30 0.32 0.32 0.30 0.28 0.29 0.28
0.92 0.87 0.78 0.64 0.59 0.56 0.54 0.51 0.47 0.44 0.40 0.38 0.37 0.34 0.34 0.35 0.33 0.31 0.30 0.29 0.27 0.26
0.84 0.74 0.67 0.63 0.59 0.53 0.49 0.45 0.40 0.35 0.33 0.30 0.33 0.38 0.37 0.36 0.33 0.31 0.29 0.29 0.28 0.26
0.63 0.59 0.55 0.51 0.49 0.47 0.43 0.37 0.33 0.30 0.28 0.31 0.36 0.39 0.38 0.35 0.32 0.29 0.29 0.30 0.28 0.26
0.58 0.54 0.50 0.49 0.46 0.41 0.35 0.32 0.29 0.30 0.34 0.37 0.38 0.40 0.36 0.32 0.30 0.29 0.30 0.29 0.26 0.26
0.47 0.45 0.43 0.40 0.37 0.33 0.31 0.29 0.31 0.34 0.37 0.37 0.36 0.34 0.33 0.33 0.32 0.31 0.28 0.25 0.24 0.25
Wind_Speed
35 33 29 33 32 30 31 29 27 25 24 23 21 20 20 21 21 21 20 20 20 22
36 37 32 34 34 32 30 28 28 27 23 22 20 20 21 20 16 17 18 20 21 23
36 34 31 28 30 29 30 27 23 23 22 20 21 19 16 17 17 18 19 21 22 24
37 32 26 23 24 26 27 24 23 18 15 14 14 14 14 17 18 19 20 22 23 26
36 34 31 26 19 21 21 21 20 19 15 14 14 14 15 17 18 19 21 23 26 29
35 34 30 29 28 20 16 16 15 15 15 14 14 15 17 18 18 20 23 25 28 31
32 31 29 21 21 24 18 17 15 15 14 15 15 16 17 17 19 22 24 27 29 31
29 28 27 27 23 20 18 16 15 14 14 14 14 14 16 19 21 23 25 28 30 33
25 25 25 24 21 19 19 17 15 14 14 14 15 16 17 19 22 24 27 29 32 34
22 22 21 21 18 15 15 13 13 13 13 14 15 16 18 20 23 26 28 31 33 35
20 19 18 18 16 14 13 11 11 11 13 14 15 17 19 22 25 27 30 32 34 37
18 18 17 14 13 11 11 11 10 11 13 14 17 19 21 24 26 29 31 33 36 37
15 15 15 13 12 11 10 10 11 12 13 15 18 21 23 25 28 30 33 35 37 38
12 12 12 11 10 10 9 10 11 13 15 18 20 22 24 27 29 31 34 36 37 38
Wind_Direction
220 221 224 220 221 227 229 232 233 238 243 246 249 261 266 271 278 280 280 284 287 293
224 223 230 229 226 227 232 231 236 238 240 251 253 262 268 272 275 281 286 290 293 295
218 223 223 225 223 225 229 231 232 239 244 247 259 263 260 271 275 285 291 293 296 298
216 214 217 216 221 225 227 229 236 238 238 249 252 261 265 276 283 287 290 296 299 301
212 213 214 213 222 212 220 226 232 237 243 253 259 266 276 282 286 290 294 298 301 304
210 212 214 220 219 218 217 213 225 234 242 256 264 270 280 284 289 294 297 301 304 305
206 208 208 199 202 215 223 228 235 243 254 264 269 276 281 286 292 297 300 304 306 307
198 200 203 207 214 217 225 234 241 251 259 264 271 277 283 290 296 300 304 306 307 309
189 196 201 207 212 222 228 237 243 248 257 266 273 279 288 295 299 303 305 308 309 310
183 186 194 198 203 212 221 229 239 249 260 268 278 286 293 299 302 305 308 309 311 312
177 180 188 197 205 204 216 227 237 251 265 277 284 289 297 302 305 307 309 311 313 314
178 182 185 190 200 215 221 235 249 263 273 282 290 295 300 303 306 309 312 313 315 316
181 190 194 199 203 217 230 242 257 270 281 289 295 299 303 305 309 311 314 315 316 317
174 180 189 201 213 225 238 255 269 279 287 294 299 303 306 308 310 313 315 316 317 318